Orlando, FL

7:19 AM EDT on April 27, 2017 (GMT -0400)
Executive

Weather History for KORL - July, 2013

Change the Weather History Date:

Tuesday, July 2, 2013

  Actual Average Record
Temperature  
Mean Temperature 78 °F -  
Max Temperature 82 °F 88 °F 100 °F (1998)
Min Temperature 73 °F 71 °F 70 °F (1999)
Cooling Degree Days 12    
Growing Degree Days 28 (Base 50)    
Moisture  
Dew Point 73 °F    
Average Humidity 90    
Maximum Humidity 100    
Minimum Humidity 74    
Precipitation  
Precipitation 0.22 in - - ()
Sea Level Pressure  
Sea Level Pressure 30.08 in    
Wind  
Wind Speed 7 mph (SE)    
Max Wind Speed 15 mph    
Max Gust Speed 17 mph    
Visibility 10 miles    
Events Rain , Thunderstorm    
Averages and records for this station are not official NWS values.
T = Trace of Precipitation, MM = Missing Value Source: NWS Daily Summary

Daily Weather History Graph

Daily Weather History Graph

Search for Another Location

Airport or City:

Trip Planner

Search our weather history database for the weather conditions in past years. The results will help you decide how hot, cold, wet, or windy it might be!

Date:

Astronomy

Jul. 02, 2013 Rise Set
Actual Time 6:31 AM EDT 8:27 PM EDT
Civil Twilight 6:04 AM EDT 8:53 PM EDT
Nautical Twilight 5:32 AM EDT 9:26 PM EDT
Astronomical Twilight 4:58 AM EDT 10:00 PM EDT
Moon 2:19 AM EDT (7/2) 3:50 PM EDT (7/2)
Length of Visible Light 14h 48m
Length of Day
13h 55m
Waning Crescent, 26% of the Moon is Illuminated
Jul 2
Waning Crescent
Jul 8
New
Jul 15
First Quarter
Jul 22
Full
Jul 29
Last Quarter

Hourly Weather History & Observations

Time (EDT) Temp. Heat Index Dew Point Humidity Pressure Visibility Wind Dir Wind Speed Gust Speed Precip Events Conditions
12:53 AM 73.0 °F - 73.0 °F 100% 30.04 in 10.0 mi ESE 8.1 mph - 0.03 in Rain Light Rain
1:29 AM 73.4 °F - 73.4 °F 100% 30.02 in 10.0 mi East 9.2 mph - 0.00 in   Scattered Clouds
1:53 AM 73.0 °F - 73.0 °F 100% 30.02 in 10.0 mi ESE 8.1 mph - 0.00 in   Scattered Clouds
2:53 AM 73.0 °F - 72.0 °F 96% 30.02 in 10.0 mi SSE 4.6 mph - N/A   Clear
3:53 AM 73.0 °F - 72.0 °F 96% 30.02 in 10.0 mi SSE 4.6 mph - N/A   Clear
4:53 AM 73.0 °F - 72.0 °F 96% 30.02 in 10.0 mi ESE 3.5 mph - N/A   Partly Cloudy
5:53 AM 73.0 °F - 72.0 °F 96% 30.03 in 10.0 mi ESE 4.6 mph - N/A   Overcast
6:53 AM 73.9 °F - 72.0 °F 93% 30.05 in 10.0 mi ESE 5.8 mph - N/A   Overcast
7:53 AM 75.0 °F - 73.9 °F 96% 30.06 in 10.0 mi SSE 4.6 mph - 0.00 in   Mostly Cloudy
8:53 AM 77.0 °F - 75.0 °F 94% 30.08 in 10.0 mi South 3.5 mph - 0.00 in   Overcast
10:53 AM 81.0 °F 86.7 °F 75.0 °F 82% 30.09 in 10.0 mi SE 5.8 mph - N/A   Clear
11:53 AM 81.0 °F 86.7 °F 75.0 °F 82% 30.09 in 10.0 mi SE 4.6 mph - 0.01 in   Mostly Cloudy
12:16 PM 82.4 °F 89.5 °F 75.2 °F 79% 30.08 in 10.0 mi SSE 11.5 mph 17.3 mph N/A Thunderstorm Thunderstorm
12:53 PM 77.0 °F - 72.0 °F 84% 30.09 in 10.0 mi Calm Calm - 0.01 in Thunderstorm Thunderstorm
1:53 PM 78.1 °F - 73.0 °F 84% 30.12 in 10.0 mi South 15.0 mph - 0.00 in Rain , Thunderstorm Light Thunderstorms and Rain
2:53 PM 73.9 °F - 72.0 °F 93% 30.12 in 7.0 mi ESE 11.5 mph - 0.14 in Rain , Thunderstorm Thunderstorms and Rain
3:53 PM 75.0 °F - 73.0 °F 94% 30.09 in 10.0 mi SE 9.2 mph - 0.02 in   Mostly Cloudy
4:53 PM 78.1 °F - 72.0 °F 81% 30.07 in 10.0 mi SE 6.9 mph - N/A   Clear
5:53 PM 80.1 °F 83.6 °F 71.1 °F 74% 30.08 in 10.0 mi SSE 5.8 mph - N/A   Clear
6:53 PM 80.1 °F 83.8 °F 72.0 °F 76% 30.10 in 10.0 mi SSW 6.9 mph - N/A   Clear
7:53 PM 78.1 °F - 72.0 °F 81% 30.12 in 10.0 mi SSE 6.9 mph - N/A   Scattered Clouds
8:53 PM 75.9 °F - 73.0 °F 91% 30.13 in 10.0 mi Calm Calm - 0.00 in   Clear
9:53 PM 75.0 °F - 73.0 °F 94% 30.12 in 10.0 mi ESE 6.9 mph - 0.01 in   Clear
10:53 PM 73.9 °F - 73.0 °F 97% 30.12 in 10.0 mi ESE 5.8 mph - N/A   Clear
11:53 PM 75.0 °F - 73.9 °F 96% 30.12 in 10.0 mi East 5.8 mph - N/A   Clear